Location: Hawaiian Village Mobile Home Park
(32.8359°N, 116.9792°W)
Time: 19:36:50
(UTC+00:00)

ADEOS - Pass Details

Date: 09 December 2021
Orbit: 792 x 795 km, 98.9° (Epoch: 28 January)

Event Time Altitude Azimuth Distance (km) Brightness Sun altitude
Rises 12:08:23 0° 34° (NNE) 3,298 7.1 -30.9°
Reaches altitude 10° 12:11:29 10° 53° (NE) 2,363 6.5 -30.2°
Maximum altitude 12:14:57 18° 95° (E) 1,871 6.3 -29.5°
Drops below altitude 10° 12:18:23 10° 137° (SE) 2,352 6.6 -28.8°
Sets 12:21:27 0° 156° (SSE) 3,276 7.2 -28.2°
